When you browse on this site, cookies collect data to enhance your experience and personalize the content and advertising you see.
Visit our Privacy Policy to learn more. By continuing to use the site, you agree to this use of cookies and data.
  • In Czech Republic
  • List of Countries
  • For 7 days
  • Water Temperature
  • Satellite Maps
  • Weather Map
  • Weather Widgets
  • user-avatar
    Login

    Hourly Weather Kapan

    Today, 23 March, Saturday

    Time Temperature Precipitation Wind Pressure Humidity
    00:00 +6°C° 0.1 mm 1 mps 684 mmHg 92%
    01:00 +6°C° 0 mm 1 mps 684 mmHg 91%
    02:00 +5°C° 0 mm 1 mps 684 mmHg 91%
    03:00 +4°C° 0 mm 1 mps 684 mmHg 89%
    04:00 +4°C° 0 mm 1 mps 684 mmHg 86%
    05:00 +4°C° 0 mm 1 mps 684 mmHg 83%
    06:00 +4°C° 0 mm 1 mps 684 mmHg 80%
    07:00 +5°C° 0 mm 1 mps 684 mmHg 71%
    08:00 +7°C° 0 mm 1 mps 684 mmHg 62%
    09:00 +8°C° 0 mm 2 mps 684 mmHg 51%
    10:00 +9°C° 0 mm 2 mps 683 mmHg 47%
    11:00 +12°C° 0 mm 2 mps 683 mmHg 44%
    12:00 +12°C° 0 mm 3 mps 682 mmHg 41%
    13:00 +12°C° 0 mm 3 mps 682 mmHg 41%
    14:00 +13°C° 0 mm 3 mps 681 mmHg 40%
    15:00 +13°C° 0 mm 3 mps 681 mmHg 40%
    16:00 +12°C° 0 mm 3 mps 680 mmHg 46%
    17:00 +10°C° 0 mm 2 mps 680 mmHg 51%
    18:00 +9°C° 0 mm 2 mps 680 mmHg 57%
    19:00 +8°C° 0 mm 2 mps 680 mmHg 60%
    20:00 +9°C° 0 mm 1 mps 680 mmHg 62%
    21:00 +8°C° 0 mm 1 mps 680 mmHg 65%
    22:00 +8°C° 0 mm 1 mps 680 mmHg 63%
    23:00 +7°C° 0 mm 1 mps 680 mmHg 62%

    Tomorrow, 24 March, Sunday

    Time Temperature Precipitation Wind Pressure Humidity
    00:00 +7°C° 0 mm 1 mps 680 mmHg 61%
    01:00 +7°C° 0 mm 1 mps 680 mmHg 61%
    02:00 +7°C° 0 mm 1 mps 679 mmHg 62%
    03:00 +7°C° 0 mm 1 mps 679 mmHg 62%
    04:00 +7°C° 0 mm 1 mps 679 mmHg 64%
    05:00 +7°C° 0 mm 1 mps 679 mmHg 65%
    06:00 +6°C° 0 mm 1 mps 679 mmHg 67%
    07:00 +8°C° 0 mm 1 mps 679 mmHg 63%
    08:00 +9°C° 0 mm 2 mps 679 mmHg 60%
    09:00 +10°C° 0 mm 2 mps 679 mmHg 57%
    10:00 +11°C° 0 mm 3 mps 679 mmHg 55%
    11:00 +12°C° 0 mm 3 mps 678 mmHg 53%
    12:00 +13°C° 0 mm 3 mps 678 mmHg 52%
    13:00 +13°C° 0.1 mm 4 mps 678 mmHg 55%
    14:00 +12°C° 0.1 mm 4 mps 677 mmHg 59%
    15:00 +11°C° 0.1 mm 4 mps 676 mmHg 62%
    16:00 +10°C° 1 mm 4 mps 676 mmHg 68%
    17:00 +9°C° 1 mm 3 mps 676 mmHg 73%
    18:00 +8°C° 1 mm 3 mps 676 mmHg 78%
    19:00 +7°C° 0.7 mm 3 mps 677 mmHg 80%
    20:00 +7°C° 0.7 mm 2 mps 677 mmHg 82%
    21:00 +7°C° 0.7 mm 2 mps 677 mmHg 85%
    22:00 +6°C° 0.7 mm 2 mps 677 mmHg 86%
    23:00 +6°C° 0.7 mm 2 mps 677 mmHg 88%

    Day after tomorrow, 25 March, Monday

    Time Temperature Precipitation Wind Pressure Humidity
    00:00 +6°C° 0.7 mm 2 mps 677 mmHg 90%
    01:00 +6°C° 0.8 mm 2 mps 677 mmHg 91%
    02:00 +5°C° 0.8 mm 2 mps 677 mmHg 92%
    03:00 +5°C° 0.8 mm 2 mps 677 mmHg 93%
    04:00 +5°C° 0.6 mm 2 mps 677 mmHg 93%
    05:00 +5°C° 0.6 mm 2 mps 677 mmHg 93%
    06:00 +4°C° 0.6 mm 2 mps 677 mmHg 93%
    07:00 +3°C° 0.8 mm 3 mps 677 mmHg 93%
    08:00 +3°C° 0.8 mm 3 mps 677 mmHg 92%
    09:00 +3°C° 0.8 mm 3 mps 677 mmHg 92%
    10:00 +3°C° 0.9 mm 3 mps 677 mmHg 91%
    11:00 +3°C° 0.9 mm 3 mps 677 mmHg 90%
    12:00 +3°C° 0.9 mm 3 mps 677 mmHg 89%
    13:00 +3°C° 1 mm 3 mps 677 mmHg 89%
    14:00 +3°C° 1 mm 3 mps 677 mmHg 88%
    15:00 +3°C° 1 mm 3 mps 676 mmHg 88%
    16:00 +4°C° 0.6 mm 2 mps 677 mmHg 89%
    17:00 +3°C° 0.6 mm 2 mps 677 mmHg 89%
    18:00 +3°C° 0.6 mm 2 mps 678 mmHg 90%
    19:00 +4°C° 0.4 mm 1 mps 678 mmHg 90%
    20:00 +4°C° 0.4 mm 1 mps 679 mmHg 90%
    21:00 +3°C° 0.4 mm 1 mps 679 mmHg 90%
    22:00 +3°C° 0.2 mm 1 mps 680 mmHg 89%
    23:00 +3°C° 0.2 mm 1 mps 680 mmHg 88%

    26 March, Tuesday

    Time Temperature Precipitation Wind Pressure Humidity
    00:00 +2°C° 0.2 mm 0 mps 680 mmHg 87%
    01:00 +3°C° 0.1 mm 1 mps 680 mmHg 87%
    02:00 +3°C° 0 mm 1 mps 680 mmHg 87%
    03:00 +2°C° 0 mm 1 mps 680 mmHg 86%
    04:00 +2°C° 0 mm 1 mps 680 mmHg 87%
    05:00 +2°C° 0 mm 1 mps 680 mmHg 88%
    06:00 +2°C° 0 mm 1 mps 680 mmHg 89%
    07:00 +3°C° 0 mm 1 mps 681 mmHg 87%
    08:00 +4°C° 0 mm 2 mps 681 mmHg 86%
    09:00 +5°C° 0 mm 2 mps 682 mmHg 85%
    10:00 +6°C° 0 mm 2 mps 681 mmHg 83%
    11:00 +5°C° 0 mm 3 mps 681 mmHg 81%
    12:00 +7°C° 0 mm 3 mps 681 mmHg 79%
    13:00 +7°C° 0.1 mm 3 mps 681 mmHg 78%
    14:00 +7°C° 0.1 mm 3 mps 680 mmHg 78%
    15:00 +8°C° 0.1 mm 2 mps 680 mmHg 77%
    16:00 +7°C° 0 mm 2 mps 680 mmHg 80%
    17:00 +6°C° 0 mm 2 mps 680 mmHg 82%
    18:00 +6°C° 0 mm 2 mps 680 mmHg 85%
    19:00 +5°C° 0 mm 2 mps 680 mmHg 87%
    20:00 +6°C° 0 mm 1 mps 680 mmHg 88%
    21:00 +6°C° 0 mm 1 mps 681 mmHg 90%
    22:00 +5°C° 0.1 mm 1 mps 680 mmHg 90%
    23:00 +4°C° 0.1 mm 0 mps 680 mmHg 90%

    27 March, Wednesday

    Time Temperature Precipitation Wind Pressure Humidity
    00:00 +4°C° 0.1 mm 0 mps 680 mmHg 89%
    01:00 +4°C° 0.1 mm 0 mps 680 mmHg 88%
    02:00 +4°C° 0.1 mm 0 mps 680 mmHg 86%
    03:00 +4°C° 0.1 mm 0 mps 680 mmHg 85%
    04:00 +5°C° 0 mm 1 mps 680 mmHg 83%
    05:00 +5°C° 0 mm 1 mps 680 mmHg 81%
    06:00 +5°C° 0 mm 1 mps 680 mmHg 80%
    07:00 +5°C° 0.1 mm 2 mps 680 mmHg 75%
    08:00 +7°C° 0.1 mm 2 mps 681 mmHg 71%
    09:00 +9°C° 0.1 mm 2 mps 681 mmHg 67%
    10:00 +10°C° 0.1 mm 2 mps 681 mmHg 65%
    11:00 +12°C° 0.1 mm 2 mps 681 mmHg 64%
    12:00 +12°C° 0.1 mm 3 mps 681 mmHg 62%
    13:00 +12°C° 0.1 mm 3 mps 681 mmHg 60%
    14:00 +12°C° 0.1 mm 3 mps 680 mmHg 59%
    15:00 +13°C° 0.1 mm 3 mps 680 mmHg 57%
    16:00 +13°C° 0.1 mm 2 mps 680 mmHg 59%
    17:00 +12°C° 0.1 mm 2 mps 680 mmHg 62%
    18:00 +10°C° 0.1 mm 2 mps 681 mmHg 64%
    19:00 +9°C° 0.1 mm 2 mps 681 mmHg 67%
    20:00 +9°C° 0.1 mm 1 mps 681 mmHg 70%
    21:00 +8°C° 0.1 mm 1 mps 682 mmHg 73%
    22:00 +8°C° 0 mm 1 mps 682 mmHg 73%
    23:00 +8°C° 0 mm 1 mps 682 mmHg 72%

    28 March, Thursday

    Time Temperature Precipitation Wind Pressure Humidity
    00:00 +8°C° 0 mm 1 mps 682 mmHg 71%
    01:00 +8°C° 0.1 mm 1 mps 682 mmHg 71%
    02:00 +8°C° 0.1 mm 1 mps 682 mmHg 72%
    03:00 +8°C° 0.1 mm 1 mps 682 mmHg 72%
    04:00 +7°C° 0.2 mm 1 mps 682 mmHg 75%
    05:00 +7°C° 0.2 mm 1 mps 682 mmHg 77%
    06:00 +6°C° 0.2 mm 0 mps 682 mmHg 79%
    07:00 +8°C° 0.3 mm 1 mps 683 mmHg 78%
    08:00 +8°C° 0.3 mm 1 mps 683 mmHg 77%
    09:00 +8°C° 0.3 mm 2 mps 683 mmHg 76%
    10:00 +8°C° 0.7 mm 2 mps 683 mmHg 75%
    11:00 +9°C° 0.7 mm 2 mps 683 mmHg 74%
    12:00 +9°C° 0.7 mm 2 mps 683 mmHg 74%
    13:00 +9°C° 0.6 mm 2 mps 682 mmHg 74%
    14:00 +9°C° 0.6 mm 3 mps 682 mmHg 75%
    15:00 +9°C° 0.6 mm 3 mps 681 mmHg 75%
    16:00 +8°C° 0.7 mm 3 mps 682 mmHg 79%
    17:00 +8°C° 0.7 mm 2 mps 682 mmHg 83%
    18:00 +7°C° 0.7 mm 2 mps 682 mmHg 87%
    19:00 +7°C° 1 mm 2 mps 682 mmHg 89%
    20:00 +6°C° 1 mm 2 mps 683 mmHg 91%
    21:00 +6°C° 1 mm 2 mps 683 mmHg 92%
    22:00 +6°C° 1.4 mm 2 mps 683 mmHg 93%
    23:00 +5°C° 1.4 mm 2 mps 683 mmHg 93%
    Show more